TimeEST,TemperatureF,Dew PointF,Humidity,Sea Level PressureIn,VisibilityMPH,Wind Direction,Wind SpeedMPH,Gust SpeedMPH,PrecipitationIn,Events,Conditions,WindDirDegrees,DateUTC
12:53 AM,28.0,17.1,63,30.34,10.0,Calm,Calm,-,N/A,,Overcast,0,2012-12-06 05:53:00
1:53 AM,28.0,17.1,63,30.35,10.0,WNW,5.8,-,N/A,,Overcast,300,2012-12-06 06:53:00
2:53 AM,27.0,17.1,66,30.35,10.0,North,4.6,-,N/A,,Overcast,350,2012-12-06 07:53:00
3:45 AM,27.0,16.0,63,30.28,10.0,NE,4.6,-,N/A,,Overcast,40,2012-12-06 08:45:00
3:53 AM,26.1,16.0,66,30.34,10.0,NE,6.9,-,N/A,,Overcast,40,2012-12-06 08:53:00
4:38 AM,25.0,16.0,69,30.25,10.0,East,5.8,-,N/A,,Scattered Clouds,80,2012-12-06 09:38:00
4:53 AM,25.0,16.0,69,30.31,10.0,ENE,5.8,-,N/A,,Clear,60,2012-12-06 09:53:00
5:53 AM,24.1,15.1,69,30.32,10.0,East,4.6,-,N/A,,Clear,90,2012-12-06 10:53:00
6:53 AM,21.9,15.1,75,30.33,10.0,East,3.5,-,N/A,,Clear,90,2012-12-06 11:53:00
7:53 AM,23.0,15.1,72,30.32,10.0,SE,4.6,-,N/A,,Clear,130,2012-12-06 12:53:00
8:53 AM,24.1,16.0,71,30.33,10.0,ESE,4.6,-,N/A,,Clear,120,2012-12-06 13:53:00
9:53 AM,28.9,18.0,64,30.31,10.0,SE,6.9,-,N/A,,Clear,130,2012-12-06 14:53:00
10:53 AM,34.0,18.0,52,30.28,10.0,ESE,6.9,-,N/A,,Clear,120,2012-12-06 15:53:00
11:53 AM,37.9,17.1,43,30.24,10.0,SE,8.1,-,N/A,,Clear,130,2012-12-06 16:53:00
12:53 PM,42.1,12.9,31,30.20,10.0,South,9.2,-,N/A,,Clear,170,2012-12-06 17:53:00
1:53 PM,44.1,10.9,26,30.17,10.0,SE,10.4,-,N/A,,Clear,140,2012-12-06 18:53:00
2:53 PM,44.1,12.9,28,30.16,10.0,SE,9.2,-,N/A,,Clear,140,2012-12-06 19:53:00
3:53 PM,42.1,14.0,32,30.16,10.0,SSE,8.1,-,N/A,,Clear,150,2012-12-06 20:53:00
4:53 PM,39.0,15.1,38,30.15,10.0,SSE,10.4,-,N/A,,Clear,150,2012-12-06 21:53:00
5:53 PM,36.0,16.0,44,30.14,10.0,SE,8.1,-,N/A,,Clear,140,2012-12-06 22:53:00
6:53 PM,37.0,15.1,41,30.13,10.0,SE,11.5,-,N/A,,Clear,140,2012-12-06 23:53:00
7:53 PM,36.0,15.1,43,30.14,10.0,SSE,4.6,-,N/A,,Clear,160,2012-12-07 00:53:00
8:53 PM,35.1,17.1,48,30.13,10.0,SE,9.2,-,N/A,,Clear,140,2012-12-07 01:53:00
9:53 PM,35.1,18.0,50,30.12,10.0,SSE,8.1,-,N/A,,Clear,150,2012-12-07 02:53:00
10:53 PM,34.0,18.0,52,30.09,10.0,SE,8.1,-,N/A,,Clear,140,2012-12-07 03:53:00
11:53 PM,35.1,19.0,52,30.07,10.0,SE,8.1,-,N/A,,Clear,140,2012-12-07 04:53:00